GEFSSE_prec_meanprecacc_114.txt.gz
Total_Precipitation_Accumulation
0.71 0.39 0.62 0.63 0.54 0.46 0.44 0.45 0.45 0.43 0.44 0.42 0.39 0.37 0.34 0.30 0.26 0.28 0.27 0.24 0.23 0.25 0.30 0.35 0.35 0.38 0.37 0.38 0.42 0.48 0.48 0.48 0.43 0.35 0.31 0.33 0.38 0.45 0.59 0.73 1.02 1.37 0.96
0.48 0.32 0.58 0.65 0.54 0.48 0.45 0.41 0.40 0.40 0.42 0.40 0.39 0.37 0.34 0.31 0.28 0.28 0.26 0.24 0.23 0.24 0.27 0.32 0.37 0.40 0.44 0.46 0.55 0.61 0.58 0.53 0.54 0.51 0.54 0.63 0.55 0.51 0.54 0.68 1.09 1.34 0.98
0.39 0.32 0.42 0.59 0.55 0.51 0.50 0.48 0.43 0.45 0.44 0.39 0.40 0.38 0.36 0.33 0.31 0.30 0.27 0.26 0.25 0.25 0.25 0.31 0.40 0.46 0.48 0.56 0.63 0.67 0.67 0.65 0.64 0.62 0.92 1.43 1.08 0.72 0.70 0.75 0.81 0.87 0.88
0.32 0.31 0.42 0.60 0.61 0.59 0.56 0.54 0.56 0.57 0.51 0.50 0.51 0.47 0.45 0.41 0.36 0.33 0.32 0.30 0.29 0.30 0.33 0.35 0.41 0.50 0.55 0.57 0.59 0.60 0.61 0.65 0.71 0.65 1.03 1.46 1.44 1.02 0.89 0.91 0.79 0.81 0.93
0.34 0.36 0.56 0.72 0.70 0.69 0.62 0.62 0.68 0.65 0.59 0.57 0.56 0.55 0.55 0.50 0.48 0.40 0.37 0.37 0.38 0.42 0.46 0.44 0.47 0.53 0.59 0.61 0.58 0.57 0.59 0.76 0.70 0.63 0.89 1.16 1.51 1.21 0.97 1.00 0.90 0.86 0.95
0.47 0.43 0.55 0.68 0.74 0.73 0.62 0.64 0.72 0.67 0.63 0.56 0.51 0.53 0.53 0.51 0.52 0.46 0.47 0.48 0.46 0.50 0.56 0.58 0.61 0.63 0.63 0.64 0.62 0.66 0.74 0.78 0.66 0.82 0.95 1.15 1.41 1.19 0.94 0.90 0.96 1.01 1.07
0.47 0.38 0.43 0.65 0.70 0.69 0.66 0.70 0.80 0.74 0.67 0.55 0.50 0.54 0.56 0.55 0.54 0.52 0.54 0.55 0.53 0.51 0.56 0.61 0.65 0.65 0.61 0.64 0.64 0.65 0.72 0.73 0.80 0.95 0.96 1.15 1.17 1.03 0.90 0.85 0.99 1.05 1.09
0.69 0.55 0.51 0.67 0.72 0.70 0.73 0.77 0.85 0.85 0.73 0.60 0.56 0.56 0.54 0.55 0.55 0.56 0.57 0.58 0.58 0.56 0.60 0.62 0.62 0.61 0.54 0.55 0.56 0.56 0.67 0.67 0.69 0.81 0.88 1.09 1.08 0.99 0.84 0.81 0.90 0.99 1.09
1.05 0.94 0.84 0.78 0.71 0.74 0.80 0.79 0.94 1.07 0.92 0.73 0.65 0.65 0.58 0.53 0.53 0.53 0.53 0.59 0.60 0.61 0.61 0.60 0.63 0.61 0.56 0.54 0.53 0.58 0.67 0.63 0.60 0.71 0.71 1.00 1.09 0.98 0.87 0.83 0.86 0.98 1.11
1.03 0.95 0.94 1.02 1.00 0.99 1.00 1.07 1.19 1.50 1.38 1.00 0.81 0.69 0.65 0.57 0.55 0.58 0.56 0.58 0.64 0.66 0.67 0.70 0.69 0.68 0.68 0.63 0.60 0.64 0.65 0.51 0.51 0.51 0.56 0.77 1.08 0.95 0.82 0.78 0.76 0.78 0.91
0.77 0.82 0.87 0.93 0.95 0.98 0.96 1.13 1.38 1.66 1.73 1.38 1.10 0.95 0.78 0.55 0.57 0.65 0.59 0.68 0.74 0.76 0.79 0.85 0.84 0.77 0.77 0.68 0.65 0.66 0.55 0.38 0.55 0.57 0.60 0.76 1.00 0.94 0.79 0.65 0.58 0.62 0.67
0.59 0.57 0.58 0.62 0.67 0.72 0.77 1.04 1.27 1.33 1.53 1.31 1.28 1.13 0.98 0.92 0.87 0.69 0.64 0.79 0.85 0.86 0.85 0.90 0.95 0.80 0.67 0.55 0.56 0.57 0.39 0.36 0.51 0.52 0.51 0.82 1.08 1.02 0.81 0.67 0.58 0.58 0.56
0.55 0.52 0.45 0.46 0.48 0.54 0.67 0.88 1.10 1.23 1.40 1.41 1.39 1.33 1.32 1.27 0.94 0.78 0.85 0.88 0.89 0.88 0.79 0.83 0.83 0.64 0.51 0.47 0.50 0.44 0.35 0.36 0.46 0.50 0.58 0.84 1.11 1.09 0.83 0.66 0.57 0.53 0.53
0.50 0.56 0.49 0.37 0.37 0.39 0.47 0.66 0.86 1.07 1.26 1.31 1.14 1.06 1.19 1.20 1.01 0.88 1.00 1.09 1.06 1.01 1.00 1.01 0.92 0.75 0.56 0.49 0.47 0.46 0.41 0.43 0.49 0.55 0.66 0.66 0.93 1.04 0.94 0.73 0.61 0.55 0.56
0.47 0.54 0.56 0.48 0.40 0.39 0.44 0.51 0.58 0.87 1.05 1.20 1.25 1.03 1.15 1.19 1.12 0.98 0.93 1.10 1.06 1.04 1.05 1.05 1.01 0.88 0.76 0.61 0.58 0.55 0.58 0.55 0.53 0.48 0.62 0.59 0.72 0.94 1.02 0.92 0.76 0.65 0.62
0.40 0.47 0.52 0.55 0.54 0.50 0.49 0.51 0.51 0.56 0.67 0.79 0.76 0.73 0.92 1.04 1.00 1.00 0.87 0.92 0.99 1.10 1.25 1.23 1.06 0.98 0.88 0.74 0.74 0.72 0.69 0.64 0.63 0.51 0.60 0.62 0.53 0.60 0.77 0.94 0.94 0.84 0.77
0.39 0.42 0.47 0.54 0.61 0.62 0.63 0.71 0.64 0.59 0.64 0.64 0.60 0.61 0.72 0.83 0.85 0.97 0.94 0.91 0.92 1.10 1.27 1.33 1.23 1.14 0.95 0.86 0.82 0.79 0.71 0.72 0.72 0.61 0.60 0.65 0.55 0.46 0.59 0.82 0.98 0.98 0.88
0.37 0.37 0.39 0.43 0.48 0.53 0.60 0.68 0.73 0.73 0.75 0.71 0.74 0.70 0.66 0.79 0.91 1.03 1.06 0.97 0.95 1.12 1.28 1.37 1.42 1.39 1.24 1.11 0.99 0.88 0.80 0.87 0.81 0.69 0.67 0.70 0.72 0.61 0.60 0.62 0.77 0.95 1.00
0.36 0.32 0.31 0.32 0.32 0.35 0.42 0.54 0.65 0.72 0.80 0.86 0.88 0.86 0.84 0.88 0.92 1.06 1.20 1.20 1.19 1.25 1.29 1.30 1.35 1.31 1.28 1.23 1.10 1.02 0.92 0.92 0.89 0.76 0.76 0.82 0.85 0.82 0.73 0.55 0.53 0.55 0.76
0.30 0.30 0.30 0.31 0.30 0.27 0.31 0.45 0.56 0.63 0.71 0.87 0.94 1.01 1.27 1.36 1.14 1.10 1.21 1.23 1.25 1.38 1.38 1.48 1.59 1.44 1.29 1.33 1.28 1.16 1.03 0.93 0.85 0.84 0.89 0.94 0.94 0.88 0.84 0.71 0.63 0.42 0.48
0.15 0.15 0.18 0.24 0.31 0.29 0.26 0.33 0.44 0.53 0.67 0.81 0.97 1.04 1.27 1.37 1.28 1.29 1.30 1.29 1.29 1.32 1.37 1.52 1.76 1.65 1.48 1.39 1.52 1.43 1.19 0.99 0.90 0.88 0.88 0.98 1.02 0.99 0.97 1.01 0.83 0.63 0.44
0.08 0.08 0.11 0.15 0.24 0.32 0.36 0.41 0.53 0.71 0.83 0.93 1.06 1.13 1.24 1.26 1.25 1.18 1.33 1.42 1.35 1.42 1.49 1.63 1.81 1.86 1.69 1.55 1.75 2.02 1.70 1.36 0.99 0.88 0.87 0.86 0.97 1.03 0.98 0.91 0.86 0.80 0.64
0.04 0.06 0.11 0.19 0.33 0.50 0.66 0.88 1.13 1.41 1.53 1.42 1.27 1.34 1.47 1.53 1.49 1.42 1.48 1.62 1.54 1.54 1.58 1.63 1.66 1.96 2.02 1.86 1.85 2.22 1.92 1.70 1.60 1.12 0.85 0.79 0.98 1.09 1.08 0.97 0.87 0.94 0.91
0.12 0.18 0.28 0.41 0.57 0.74 0.95 1.17 1.43 1.66 1.82 1.84 1.86 1.89 1.87 1.82 1.70 1.59 1.58 1.62 1.64 1.68 1.61 1.51 1.64 1.96 2.29 2.24 2.09 1.92 1.71 1.58 1.76 1.60 1.09 0.84 0.91 1.03 1.12 1.02 0.93 0.96 1.03
0.29 0.41 0.53 0.76 0.93 1.07 1.13 1.23 1.45 1.56 1.63 1.74 1.88 1.93 1.93 1.84 1.71 1.56 1.51 1.54 1.60 1.69 1.68 1.72 1.86 2.12 2.34 2.47 2.39 2.13 1.83 1.62 1.34 1.46 1.44 1.22 1.01 0.92 0.93 1.02 1.08 1.03 1.02
0.57 0.81 0.96 1.07 1.16 1.16 1.14 1.16 1.30 1.43 1.52 1.60 1.73 1.79 1.73 1.59 1.54 1.51 1.49 1.45 1.40 1.47 1.57 1.73 1.96 2.07 2.23 2.41 2.40 2.13 1.92 1.76 1.57 1.48 1.36 1.40 1.38 1.11 0.93 0.92 0.97 0.99 0.99

GEFSSE_prec_meanprecacc_120.txt.gz
Total_Precipitation_Accumulation
0.81 0.44 0.70 0.68 0.56 0.48 0.46 0.46 0.46 0.45 0.46 0.43 0.40 0.38 0.35 0.31 0.26 0.28 0.27 0.24 0.24 0.26 0.31 0.35 0.36 0.38 0.38 0.39 0.42 0.48 0.49 0.49 0.45 0.35 0.33 0.36 0.40 0.47 0.61 0.76 1.03 1.39 0.99
0.52 0.36 0.65 0.70 0.57 0.51 0.47 0.43 0.42 0.41 0.43 0.41 0.40 0.38 0.35 0.31 0.28 0.29 0.26 0.24 0.24 0.25 0.28 0.32 0.38 0.41 0.45 0.46 0.55 0.62 0.59 0.54 0.56 0.53 0.57 0.66 0.58 0.54 0.56 0.70 1.11 1.36 1.00
0.39 0.33 0.46 0.64 0.57 0.53 0.53 0.50 0.44 0.46 0.45 0.39 0.41 0.39 0.37 0.33 0.31 0.30 0.28 0.26 0.25 0.25 0.26 0.31 0.41 0.46 0.48 0.56 0.64 0.67 0.68 0.66 0.65 0.65 0.96 1.45 1.11 0.75 0.72 0.77 0.83 0.88 0.90
0.32 0.31 0.43 0.63 0.64 0.62 0.59 0.56 0.57 0.57 0.52 0.51 0.53 0.49 0.46 0.41 0.36 0.34 0.33 0.30 0.29 0.30 0.33 0.35 0.41 0.50 0.55 0.58 0.60 0.60 0.62 0.66 0.73 0.69 1.06 1.48 1.47 1.07 0.93 0.93 0.80 0.82 0.94
0.35 0.36 0.57 0.74 0.72 0.70 0.63 0.63 0.69 0.66 0.59 0.58 0.57 0.55 0.56 0.51 0.48 0.41 0.38 0.38 0.38 0.42 0.46 0.44 0.47 0.53 0.59 0.61 0.59 0.57 0.60 0.77 0.73 0.66 0.92 1.19 1.52 1.25 1.00 1.02 0.91 0.87 0.97
0.48 0.44 0.56 0.70 0.74 0.73 0.63 0.64 0.73 0.68 0.64 0.57 0.51 0.53 0.54 0.51 0.52 0.46 0.47 0.49 0.47 0.50 0.56 0.58 0.61 0.63 0.63 0.64 0.62 0.66 0.75 0.79 0.68 0.85 0.98 1.19 1.43 1.23 0.97 0.92 0.98 1.02 1.09
0.47 0.39 0.44 0.67 0.71 0.69 0.66 0.71 0.81 0.75 0.68 0.57 0.51 0.54 0.56 0.55 0.54 0.52 0.54 0.55 0.53 0.51 0.56 0.61 0.65 0.66 0.61 0.64 0.65 0.66 0.73 0.74 0.81 0.98 0.99 1.19 1.21 1.08 0.93 0.87 1.02 1.07 1.11
0.69 0.56 0.53 0.70 0.74 0.71 0.73 0.77 0.85 0.86 0.73 0.61 0.56 0.56 0.54 0.55 0.55 0.56 0.57 0.58 0.58 0.56 0.60 0.62 0.62 0.61 0.55 0.56 0.57 0.58 0.69 0.69 0.71 0.85 0.93 1.13 1.16 1.05 0.86 0.83 0.92 1.02 1.12
1.05 0.94 0.84 0.79 0.73 0.74 0.81 0.79 0.94 1.07 0.92 0.73 0.65 0.65 0.58 0.53 0.53 0.53 0.54 0.59 0.60 0.62 0.61 0.61 0.63 0.62 0.58 0.55 0.54 0.59 0.69 0.66 0.63 0.75 0.76 1.04 1.18 1.06 0.90 0.86 0.88 1.00 1.14
1.03 0.95 0.94 1.02 1.01 0.99 1.00 1.07 1.19 1.50 1.38 1.00 0.81 0.69 0.65 0.57 0.55 0.58 0.56 0.58 0.64 0.66 0.68 0.71 0.70 0.69 0.70 0.64 0.61 0.66 0.69 0.55 0.55 0.56 0.62 0.82 1.19 1.06 0.89 0.81 0.79 0.81 0.93
0.77 0.82 0.88 0.94 0.95 0.98 0.96 1.13 1.38 1.66 1.73 1.38 1.10 0.95 0.78 0.55 0.57 0.65 0.59 0.68 0.74 0.76 0.79 0.85 0.84 0.78 0.78 0.70 0.66 0.69 0.58 0.42 0.62 0.64 0.67 0.83 1.09 1.04 0.86 0.69 0.61 0.64 0.70
0.59 0.57 0.58 0.62 0.67 0.72 0.77 1.04 1.27 1.33 1.53 1.31 1.28 1.13 0.98 0.92 0.87 0.69 0.64 0.79 0.85 0.86 0.85 0.91 0.95 0.80 0.68 0.55 0.57 0.59 0.41 0.39 0.55 0.59 0.58 0.92 1.17 1.10 0.87 0.71 0.60 0.60 0.59
0.55 0.52 0.45 0.46 0.48 0.54 0.67 0.88 1.10 1.23 1.40 1.41 1.39 1.33 1.32 1.27 0.94 0.78 0.85 0.88 0.89 0.89 0.79 0.83 0.83 0.64 0.51 0.47 0.51 0.45 0.36 0.38 0.49 0.57 0.66 0.93 1.20 1.18 0.91 0.71 0.61 0.56 0.56
0.50 0.56 0.49 0.37 0.37 0.39 0.47 0.66 0.86 1.07 1.26 1.31 1.14 1.06 1.19 1.20 1.01 0.88 1.00 1.09 1.06 1.01 1.01 1.02 0.93 0.76 0.57 0.50 0.48 0.48 0.43 0.46 0.53 0.61 0.73 0.73 1.00 1.12 1.01 0.80 0.67 0.58 0.59
0.47 0.54 0.56 0.48 0.40 0.39 0.44 0.51 0.58 0.87 1.05 1.20 1.25 1.03 1.15 1.19 1.12 0.98 0.93 1.10 1.06 1.04 1.06 1.06 1.02 0.90 0.77 0.62 0.59 0.56 0.59 0.58 0.58 0.54 0.67 0.64 0.76 0.99 1.08 0.99 0.84 0.70 0.65
0.40 0.47 0.52 0.55 0.54 0.50 0.49 0.51 0.51 0.56 0.67 0.79 0.76 0.73 0.92 1.04 1.00 1.00 0.87 0.92 0.99 1.10 1.25 1.24 1.07 0.99 0.88 0.75 0.75 0.72 0.71 0.68 0.67 0.55 0.64 0.65 0.56 0.63 0.81 1.00 1.02 0.91 0.82
0.39 0.42 0.47 0.54 0.61 0.62 0.63 0.71 0.64 0.59 0.64 0.64 0.60 0.61 0.72 0.83 0.85 0.97 0.95 0.91 0.92 1.11 1.27 1.34 1.23 1.14 0.96 0.86 0.83 0.81 0.73 0.76 0.76 0.66 0.64 0.68 0.57 0.48 0.62 0.87 1.04 1.06 0.96
0.38 0.37 0.39 0.43 0.48 0.53 0.60 0.68 0.73 0.73 0.75 0.71 0.74 0.70 0.66 0.79 0.91 1.03 1.06 0.97 0.95 1.12 1.28 1.37 1.42 1.39 1.24 1.12 1.01 0.90 0.83 0.90 0.86 0.72 0.70 0.74 0.75 0.62 0.61 0.65 0.81 1.01 1.09
0.37 0.33 0.31 0.32 0.32 0.35 0.42 0.54 0.65 0.72 0.80 0.86 0.88 0.86 0.84 0.88 0.92 1.06 1.20 1.20 1.19 1.25 1.29 1.31 1.36 1.31 1.29 1.24 1.12 1.05 0.95 0.94 0.94 0.81 0.81 0.87 0.88 0.84 0.75 0.57 0.56 0.59 0.83
0.30 0.31 0.30 0.31 0.30 0.27 0.31 0.45 0.56 0.63 0.71 0.87 0.94 1.01 1.27 1.36 1.14 1.10 1.21 1.23 1.25 1.38 1.38 1.49 1.60 1.45 1.30 1.34 1.30 1.19 1.05 0.96 0.89 0.90 0.96 1.00 0.98 0.91 0.86 0.73 0.65 0.45 0.53
0.16 0.15 0.18 0.24 0.31 0.29 0.26 0.33 0.44 0.53 0.67 0.81 0.97 1.04 1.27 1.37 1.28 1.29 1.30 1.29 1.29 1.33 1.37 1.53 1.77 1.66 1.48 1.40 1.53 1.46 1.24 1.04 0.95 0.94 0.94 1.05 1.09 1.04 1.01 1.04 0.86 0.65 0.47
0.09 0.09 0.12 0.15 0.24 0.32 0.36 0.41 0.53 0.71 0.83 0.93 1.06 1.13 1.24 1.26 1.25 1.18 1.33 1.42 1.36 1.43 1.50 1.64 1.82 1.88 1.71 1.57 1.76 2.04 1.75 1.42 1.06 0.94 0.92 0.93 1.05 1.09 1.03 0.96 0.90 0.84 0.67
0.05 0.07 0.12 0.20 0.33 0.50 0.66 0.88 1.13 1.41 1.53 1.42 1.27 1.34 1.47 1.53 1.49 1.42 1.48 1.62 1.54 1.55 1.59 1.63 1.66 1.97 2.04 1.88 1.86 2.23 1.95 1.73 1.65 1.17 0.89 0.85 1.05 1.15 1.14 1.04 0.93 1.00 0.97
0.12 0.19 0.29 0.41 0.57 0.74 0.95 1.17 1.43 1.66 1.82 1.84 1.86 1.89 1.87 1.82 1.70 1.59 1.58 1.62 1.64 1.68 1.61 1.51 1.64 1.96 2.29 2.25 2.11 1.93 1.72 1.60 1.78 1.63 1.12 0.88 0.99 1.10 1.21 1.12 1.03 1.06 1.10
0.29 0.42 0.53 0.76 0.93 1.07 1.13 1.23 1.45 1.56 1.63 1.74 1.88 1.93 1.93 1.84 1.71 1.56 1.51 1.54 1.60 1.69 1.68 1.72 1.86 2.12 2.34 2.48 2.41 2.14 1.85 1.64 1.36 1.47 1.45 1.25 1.05 0.97 1.00 1.11 1.20 1.13 1.11
0.57 0.81 0.96 1.07 1.16 1.16 1.14 1.16 1.30 1.44 1.52 1.60 1.73 1.79 1.73 1.59 1.54 1.51 1.49 1.45 1.40 1.47 1.57 1.73 1.96 2.07 2.23 2.41 2.41 2.14 1.93 1.76 1.58 1.50 1.38 1.42 1.41 1.15 0.98 0.97 1.07 1.09 1.09

GEFSSE_prec_meanprecacc_126.txt.gz
Total_Precipitation_Accumulation
0.84 0.50 0.87 0.80 0.66 0.55 0.51 0.54 0.53 0.52 0.52 0.48 0.44 0.43 0.39 0.34 0.29 0.30 0.29 0.27 0.26 0.27 0.32 0.37 0.37 0.40 0.39 0.40 0.43 0.49 0.50 0.50 0.46 0.36 0.34 0.37 0.42 0.49 0.64 0.79 1.06 1.40 1.01
0.54 0.40 0.78 0.82 0.66 0.57 0.52 0.48 0.48 0.48 0.48 0.45 0.44 0.43 0.39 0.35 0.32 0.31 0.29 0.26 0.26 0.26 0.29 0.33 0.38 0.42 0.46 0.48 0.56 0.63 0.60 0.55 0.57 0.54 0.58 0.67 0.60 0.57 0.58 0.72 1.13 1.38 1.01
0.42 0.37 0.54 0.77 0.68 0.62 0.60 0.57 0.49 0.50 0.49 0.44 0.45 0.44 0.44 0.39 0.36 0.34 0.31 0.29 0.28 0.27 0.28 0.32 0.41 0.47 0.50 0.57 0.65 0.69 0.70 0.68 0.67 0.67 0.97 1.46 1.11 0.76 0.74 0.80 0.85 0.91 0.91
0.34 0.34 0.47 0.75 0.74 0.71 0.66 0.62 0.61 0.63 0.57 0.56 0.58 0.54 0.53 0.48 0.41 0.36 0.36 0.33 0.32 0.33 0.36 0.37 0.43 0.51 0.56 0.59 0.60 0.61 0.63 0.68 0.76 0.70 1.06 1.48 1.47 1.08 0.94 0.95 0.82 0.85 0.95
0.36 0.39 0.61 0.81 0.79 0.77 0.69 0.67 0.74 0.71 0.64 0.62 0.62 0.60 0.60 0.55 0.51 0.43 0.40 0.39 0.40 0.44 0.49 0.46 0.48 0.54 0.61 0.63 0.60 0.59 0.61 0.79 0.74 0.67 0.92 1.19 1.53 1.26 1.02 1.03 0.93 0.90 0.98
0.48 0.45 0.59 0.74 0.79 0.78 0.67 0.68 0.77 0.71 0.67 0.60 0.55 0.56 0.56 0.54 0.54 0.47 0.48 0.50 0.48 0.51 0.57 0.59 0.62 0.64 0.64 0.66 0.64 0.68 0.78 0.80 0.69 0.86 0.99 1.19 1.43 1.26 0.99 0.94 1.01 1.06 1.11
0.47 0.40 0.46 0.69 0.73 0.72 0.70 0.75 0.84 0.76 0.70 0.59 0.53 0.57 0.58 0.57 0.56 0.53 0.55 0.57 0.54 0.52 0.57 0.62 0.66 0.66 0.63 0.65 0.66 0.68 0.76 0.76 0.82 1.00 1.01 1.19 1.22 1.11 0.95 0.88 1.04 1.11 1.15
0.69 0.56 0.53 0.71 0.76 0.73 0.76 0.80 0.87 0.87 0.75 0.62 0.57 0.57 0.55 0.56 0.55 0.57 0.57 0.59 0.58 0.57 0.61 0.63 0.63 0.61 0.56 0.57 0.59 0.58 0.70 0.71 0.72 0.85 0.94 1.14 1.18 1.10 0.89 0.84 0.94 1.06 1.16
1.05 0.94 0.84 0.80 0.74 0.76 0.83 0.80 0.94 1.08 0.92 0.74 0.65 0.65 0.58 0.54 0.53 0.53 0.54 0.59 0.60 0.62 0.62 0.61 0.64 0.63 0.59 0.57 0.57 0.62 0.72 0.68 0.64 0.76 0.77 1.05 1.21 1.13 0.95 0.88 0.90 1.04 1.18
1.03 0.95 0.94 1.03 1.01 1.00 1.01 1.07 1.19 1.50 1.38 1.00 0.81 0.70 0.65 0.58 0.55 0.59 0.56 0.58 0.64 0.67 0.68 0.71 0.70 0.70 0.71 0.66 0.63 0.69 0.72 0.57 0.56 0.56 0.64 0.84 1.23 1.15 0.96 0.87 0.83 0.85 0.99
0.77 0.82 0.88 0.94 0.95 0.98 0.96 1.13 1.38 1.67 1.73 1.38 1.10 0.95 0.78 0.55 0.57 0.65 0.59 0.69 0.74 0.76 0.80 0.86 0.86 0.79 0.79 0.71 0.69 0.71 0.60 0.43 0.62 0.65 0.68 0.85 1.14 1.13 0.94 0.74 0.67 0.70 0.76
0.60 0.57 0.58 0.62 0.67 0.72 0.77 1.04 1.27 1.33 1.53 1.31 1.28 1.13 0.98 0.92 0.87 0.69 0.64 0.79 0.85 0.86 0.86 0.91 0.96 0.81 0.68 0.56 0.58 0.60 0.41 0.39 0.56 0.61 0.60 0.94 1.23 1.19 0.96 0.76 0.66 0.67 0.66
0.55 0.52 0.45 0.46 0.48 0.54 0.67 0.88 1.10 1.23 1.40 1.41 1.39 1.33 1.32 1.27 0.94 0.78 0.85 0.88 0.89 0.89 0.79 0.83 0.83 0.64 0.51 0.47 0.51 0.45 0.37 0.39 0.50 0.59 0.69 0.96 1.25 1.25 0.99 0.79 0.68 0.64 0.65
0.50 0.56 0.49 0.37 0.37 0.39 0.47 0.66 0.86 1.07 1.26 1.31 1.14 1.06 1.19 1.20 1.01 0.88 1.00 1.09 1.06 1.01 1.01 1.02 0.93 0.76 0.58 0.50 0.48 0.48 0.43 0.46 0.54 0.63 0.76 0.75 1.03 1.18 1.09 0.89 0.75 0.65 0.68
0.47 0.54 0.56 0.48 0.40 0.39 0.44 0.51 0.58 0.87 1.05 1.20 1.25 1.03 1.15 1.19 1.12 0.98 0.93 1.10 1.06 1.04 1.06 1.06 1.02 0.90 0.77 0.62 0.59 0.56 0.60 0.58 0.58 0.56 0.69 0.66 0.80 1.04 1.17 1.09 0.93 0.78 0.74
0.40 0.47 0.52 0.55 0.54 0.50 0.49 0.51 0.51 0.56 0.67 0.79 0.76 0.73 0.92 1.04 1.00 1.00 0.87 0.93 1.00 1.10 1.25 1.24 1.07 0.99 0.89 0.76 0.75 0.73 0.72 0.69 0.68 0.56 0.65 0.67 0.59 0.66 0.87 1.09 1.11 1.00 0.89
0.39 0.42 0.47 0.54 0.61 0.62 0.63 0.71 0.64 0.59 0.64 0.64 0.60 0.61 0.72 0.83 0.85 0.97 0.95 0.91 0.92 1.11 1.28 1.35 1.23 1.14 0.96 0.87 0.83 0.81 0.73 0.78 0.77 0.67 0.66 0.69 0.59 0.51 0.65 0.93 1.13 1.16 1.05
0.38 0.37 0.39 0.43 0.48 0.53 0.60 0.68 0.73 0.73 0.75 0.71 0.74 0.70 0.66 0.79 0.91 1.03 1.06 0.97 0.95 1.12 1.28 1.38 1.43 1.39 1.24 1.12 1.01 0.90 0.84 0.92 0.88 0.75 0.72 0.75 0.76 0.64 0.64 0.70 0.86 1.09 1.19
0.37 0.33 0.31 0.32 0.32 0.35 0.42 0.54 0.65 0.72 0.80 0.86 0.88 0.86 0.84 0.88 0.92 1.06 1.20 1.20 1.19 1.26 1.29 1.31 1.36 1.32 1.30 1.25 1.13 1.06 0.97 0.99 0.98 0.85 0.83 0.88 0.89 0.86 0.77 0.59 0.60 0.64 0.91
0.30 0.31 0.30 0.31 0.30 0.27 0.31 0.45 0.56 0.63 0.71 0.87 0.94 1.01 1.27 1.36 1.14 1.10 1.21 1.23 1.25 1.38 1.39 1.49 1.60 1.46 1.31 1.35 1.30 1.19 1.07 1.00 0.93 0.93 0.99 1.02 1.00 0.93 0.88 0.75 0.66 0.48 0.59
0.16 0.15 0.18 0.24 0.31 0.29 0.26 0.33 0.44 0.53 0.67 0.81 0.97 1.04 1.27 1.38 1.28 1.29 1.30 1.29 1.29 1.33 1.37 1.53 1.77 1.67 1.49 1.40 1.54 1.46 1.25 1.07 0.97 0.95 0.96 1.08 1.11 1.05 1.03 1.06 0.87 0.67 0.51
0.09 0.09 0.12 0.16 0.25 0.32 0.36 0.41 0.53 0.71 0.83 0.93 1.06 1.13 1.24 1.26 1.25 1.18 1.33 1.42 1.36 1.43 1.50 1.64 1.82 1.88 1.71 1.57 1.77 2.05 1.76 1.43 1.08 0.95 0.94 0.95 1.07 1.10 1.05 0.97 0.91 0.85 0.69
0.05 0.07 0.12 0.20 0.33 0.50 0.66 0.88 1.13 1.41 1.53 1.42 1.27 1.34 1.47 1.53 1.49 1.42 1.49 1.62 1.54 1.55 1.59 1.63 1.67 1.97 2.04 1.88 1.86 2.24 1.96 1.74 1.67 1.18 0.90 0.86 1.08 1.18 1.16 1.05 0.94 1.01 0.98
0.12 0.19 0.29 0.41 0.57 0.74 0.95 1.17 1.43 1.66 1.82 1.84 1.86 1.89 1.87 1.82 1.70 1.59 1.58 1.63 1.64 1.69 1.61 1.51 1.64 1.96 2.29 2.25 2.11 1.94 1.73 1.62 1.79 1.64 1.12 0.89 1.02 1.13 1.23 1.14 1.06 1.09 1.13
0.29 0.42 0.53 0.76 0.93 1.07 1.13 1.23 1.45 1.56 1.63 1.74 1.88 1.93 1.93 1.84 1.71 1.56 1.51 1.54 1.60 1.69 1.68 1.72 1.86 2.12 2.34 2.48 2.41 2.14 1.86 1.65 1.36 1.48 1.46 1.25 1.06 0.98 1.01 1.14 1.23 1.16 1.14
0.58 0.81 0.96 1.07 1.16 1.16 1.14 1.16 1.30 1.44 1.52 1.60 1.73 1.79 1.73 1.59 1.54 1.51 1.49 1.45 1.40 1.47 1.57 1.73 1.96 2.07 2.24 2.42 2.42 2.14 1.93 1.77 1.59 1.51 1.38 1.43 1.42 1.16 0.99 1.00 1.10 1.13 1.13

GEFSSE_prec_meanprecacc_132.txt.gz
Total_Precipitation_Accumulation
0.87 0.54 0.98 0.94 0.80 0.69 0.64 0.66 0.65 0.64 0.63 0.57 0.52 0.50 0.46 0.42 0.37 0.38 0.37 0.32 0.30 0.32 0.37 0.41 0.41 0.43 0.41 0.41 0.44 0.50 0.51 0.52 0.47 0.37 0.34 0.38 0.44 0.51 0.66 0.80 1.07 1.42 1.03
0.56 0.43 0.86 0.95 0.80 0.71 0.65 0.62 0.61 0.60 0.58 0.54 0.51 0.51 0.49 0.44 0.40 0.38 0.35 0.33 0.31 0.31 0.33 0.38 0.43 0.46 0.48 0.49 0.57 0.64 0.61 0.57 0.58 0.55 0.59 0.68 0.61 0.58 0.60 0.74 1.15 1.41 1.03
0.43 0.39 0.59 0.91 0.82 0.76 0.75 0.69 0.59 0.60 0.57 0.51 0.52 0.51 0.52 0.47 0.42 0.39 0.38 0.35 0.32 0.31 0.31 0.37 0.45 0.51 0.52 0.60 0.66 0.70 0.71 0.69 0.68 0.68 0.98 1.48 1.13 0.78 0.76 0.81 0.88 0.93 0.94
0.35 0.36 0.51 0.86 0.85 0.83 0.79 0.72 0.70 0.70 0.63 0.61 0.64 0.60 0.59 0.54 0.46 0.41 0.40 0.36 0.35 0.36 0.39 0.41 0.46 0.54 0.58 0.61 0.63 0.63 0.65 0.70 0.77 0.71 1.07 1.49 1.49 1.10 0.95 0.96 0.84 0.87 0.99
0.37 0.41 0.65 0.91 0.87 0.84 0.76 0.74 0.80 0.77 0.69 0.67 0.66 0.64 0.64 0.59 0.56 0.47 0.42 0.41 0.41 0.46 0.50 0.48 0.50 0.55 0.62 0.65 0.62 0.60 0.63 0.81 0.76 0.68 0.93 1.20 1.55 1.29 1.03 1.05 0.95 0.93 1.02
0.49 0.46 0.61 0.80 0.86 0.83 0.72 0.74 0.83 0.76 0.71 0.63 0.57 0.58 0.59 0.57 0.57 0.50 0.50 0.51 0.49 0.52 0.58 0.61 0.63 0.65 0.66 0.67 0.64 0.69 0.79 0.82 0.70 0.88 1.00 1.20 1.45 1.28 1.01 0.96 1.03 1.09 1.16
0.48 0.40 0.47 0.72 0.77 0.75 0.72 0.78 0.87 0.80 0.73 0.62 0.55 0.58 0.60 0.59 0.57 0.55 0.56 0.57 0.55 0.53 0.57 0.63 0.67 0.67 0.64 0.66 0.66 0.68 0.76 0.77 0.83 1.01 1.02 1.21 1.23 1.13 0.97 0.90 1.06 1.14 1.20
0.70 0.56 0.54 0.73 0.78 0.75 0.78 0.81 0.88 0.88 0.77 0.64 0.58 0.58 0.56 0.56 0.56 0.57 0.58 0.59 0.59 0.58 0.61 0.63 0.63 0.62 0.57 0.58 0.59 0.59 0.71 0.71 0.72 0.86 0.96 1.16 1.20 1.12 0.90 0.85 0.95 1.08 1.20
1.05 0.95 0.85 0.80 0.75 0.77 0.83 0.80 0.95 1.09 0.93 0.75 0.66 0.66 0.58 0.54 0.53 0.54 0.54 0.60 0.61 0.63 0.62 0.62 0.64 0.63 0.60 0.57 0.57 0.62 0.73 0.69 0.64 0.76 0.78 1.07 1.24 1.17 0.99 0.91 0.92 1.06 1.21
1.03 0.95 0.95 1.03 1.01 1.00 1.01 1.07 1.19 1.50 1.38 1.00 0.81 0.70 0.65 0.58 0.55 0.59 0.56 0.59 0.65 0.67 0.69 0.72 0.71 0.70 0.71 0.66 0.63 0.70 0.73 0.58 0.57 0.57 0.65 0.85 1.25 1.19 1.01 0.90 0.86 0.89 1.03
0.78 0.82 0.88 0.94 0.96 0.98 0.96 1.13 1.38 1.67 1.73 1.38 1.10 0.95 0.78 0.55 0.57 0.65 0.59 0.69 0.74 0.77 0.80 0.86 0.86 0.80 0.80 0.71 0.70 0.72 0.61 0.44 0.63 0.65 0.69 0.87 1.17 1.17 0.97 0.77 0.69 0.73 0.80
0.60 0.57 0.58 0.62 0.67 0.72 0.77 1.04 1.27 1.33 1.53 1.31 1.28 1.13 0.98 0.92 0.87 0.69 0.64 0.79 0.86 0.87 0.86 0.91 0.96 0.81 0.68 0.56 0.59 0.61 0.41 0.40 0.57 0.61 0.61 0.96 1.25 1.23 1.00 0.79 0.68 0.70 0.70
0.55 0.52 0.45 0.46 0.48 0.54 0.67 0.88 1.10 1.23 1.40 1.41 1.39 1.33 1.32 1.27 0.94 0.78 0.85 0.88 0.90 0.89 0.79 0.84 0.84 0.64 0.52 0.48 0.52 0.46 0.37 0.40 0.50 0.60 0.70 0.98 1.28 1.29 1.03 0.83 0.71 0.69 0.71
0.50 0.56 0.49 0.37 0.37 0.39 0.47 0.66 0.86 1.07 1.26 1.31 1.14 1.06 1.19 1.20 1.01 0.88 1.01 1.09 1.06 1.01 1.01 1.02 0.93 0.77 0.58 0.51 0.48 0.48 0.44 0.47 0.55 0.64 0.77 0.78 1.08 1.23 1.14 0.94 0.79 0.69 0.75
0.47 0.54 0.56 0.48 0.40 0.39 0.44 0.51 0.58 0.87 1.05 1.20 1.25 1.03 1.15 1.19 1.12 0.98 0.93 1.10 1.06 1.05 1.06 1.07 1.03 0.91 0.78 0.63 0.60 0.56 0.61 0.60 0.59 0.57 0.72 0.69 0.84 1.10 1.22 1.14 0.99 0.83 0.79
0.40 0.47 0.52 0.55 0.54 0.50 0.49 0.51 0.51 0.56 0.67 0.79 0.76 0.73 0.92 1.04 1.00 1.00 0.87 0.93 1.00 1.10 1.26 1.25 1.08 1.01 0.90 0.77 0.76 0.73 0.73 0.70 0.69 0.59 0.68 0.71 0.62 0.69 0.90 1.12 1.18 1.07 0.96
0.39 0.42 0.47 0.54 0.61 0.62 0.63 0.71 0.64 0.59 0.64 0.64 0.60 0.61 0.72 0.83 0.85 0.97 0.95 0.91 0.93 1.11 1.28 1.35 1.24 1.16 0.97 0.87 0.85 0.82 0.74 0.79 0.80 0.70 0.69 0.75 0.63 0.53 0.67 0.96 1.18 1.23 1.13
0.38 0.37 0.39 0.43 0.48 0.53 0.60 0.68 0.73 0.73 0.75 0.71 0.74 0.70 0.66 0.79 0.91 1.03 1.06 0.97 0.96 1.13 1.29 1.39 1.44 1.41 1.27 1.14 1.03 0.92 0.85 0.95 0.91 0.79 0.76 0.80 0.80 0.66 0.66 0.71 0.89 1.13 1.25
0.37 0.33 0.31 0.32 0.32 0.35 0.42 0.54 0.65 0.72 0.80 0.86 0.88 0.86 0.84 0.88 0.92 1.06 1.20 1.20 1.19 1.26 1.30 1.31 1.37 1.33 1.32 1.27 1.14 1.08 0.98 1.01 1.03 0.90 0.87 0.92 0.91 0.88 0.79 0.60 0.61 0.66 0.95
0.30 0.31 0.30 0.31 0.30 0.27 0.31 0.45 0.56 0.63 0.71 0.87 0.94 1.01 1.27 1.36 1.14 1.11 1.21 1.23 1.26 1.39 1.39 1.49 1.62 1.47 1.33 1.37 1.32 1.21 1.09 1.03 0.97 0.98 1.03 1.06 1.03 0.95 0.89 0.76 0.68 0.49 0.62
0.16 0.15 0.18 0.24 0.31 0.29 0.26 0.33 0.44 0.53 0.67 0.81 0.97 1.04 1.27 1.38 1.28 1.30 1.30 1.29 1.30 1.33 1.37 1.53 1.79 1.70 1.51 1.42 1.56 1.49 1.29 1.10 1.01 0.99 1.00 1.13 1.16 1.08 1.04 1.08 0.89 0.70 0.54
0.09 0.09 0.12 0.16 0.25 0.32 0.36 0.41 0.53 0.71 0.83 0.93 1.06 1.13 1.24 1.26 1.26 1.19 1.33 1.42 1.36 1.43 1.50 1.64 1.84 1.91 1.73 1.59 1.79 2.08 1.80 1.47 1.11 0.99 0.98 0.99 1.12 1.15 1.08 1.00 0.95 0.88 0.72
0.05 0.07 0.12 0.20 0.33 0.50 0.66 0.88 1.13 1.41 1.53 1.42 1.27 1.34 1.47 1.53 1.49 1.42 1.49 1.62 1.54 1.55 1.59 1.63 1.67 1.98 2.06 1.89 1.87 2.26 2.00 1.77 1.69 1.21 0.92 0.88 1.10 1.21 1.19 1.08 0.97 1.03 1.01
0.12 0.19 0.29 0.41 0.57 0.74 0.95 1.17 1.43 1.66 1.82 1.84 1.86 1.89 1.87 1.82 1.70 1.59 1.58 1.63 1.64 1.69 1.61 1.51 1.64 1.97 2.31 2.27 2.11 1.94 1.74 1.63 1.81 1.66 1.14 0.90 1.02 1.15 1.25 1.17 1.08 1.10 1.15
0.29 0.42 0.53 0.76 0.93 1.07 1.13 1.23 1.45 1.56 1.63 1.74 1.88 1.93 1.93 1.84 1.71 1.56 1.51 1.54 1.60 1.69 1.68 1.72 1.86 2.12 2.35 2.49 2.42 2.15 1.86 1.66 1.37 1.49 1.48 1.26 1.07 0.99 1.03 1.16 1.25 1.18 1.16
0.58 0.81 0.96 1.07 1.16 1.16 1.14 1.16 1.30 1.44 1.52 1.60 1.73 1.79 1.73 1.59 1.54 1.51 1.49 1.45 1.40 1.47 1.57 1.73 1.96 2.07 2.24 2.42 2.42 2.15 1.94 1.78 1.59 1.51 1.39 1.43 1.43 1.17 1.00 1.01 1.11 1.14 1.15

GEFSSE_prec_meanprecacc_138.txt.gz
Total_Precipitation_Accumulation
1.04 0.59 1.00 0.98 0.85 0.74 0.71 0.74 0.76 0.76 0.75 0.70 0.61 0.56 0.51 0.47 0.43 0.43 0.40 0.35 0.34 0.36 0.41 0.47 0.45 0.47 0.45 0.44 0.47 0.53 0.53 0.53 0.48 0.38 0.36 0.40 0.45 0.52 0.67 0.82 1.10 1.49 1.06
0.65 0.45 0.87 1.00 0.86 0.76 0.73 0.70 0.71 0.71 0.68 0.63 0.60 0.56 0.53 0.49 0.45 0.42 0.39 0.36 0.35 0.35 0.36 0.42 0.45 0.48 0.51 0.52 0.60 0.67 0.63 0.57 0.59 0.57 0.62 0.73 0.63 0.60 0.62 0.75 1.17 1.45 1.05
0.47 0.41 0.61 0.95 0.88 0.84 0.83 0.77 0.69 0.70 0.65 0.58 0.58 0.55 0.55 0.51 0.45 0.42 0.39 0.39 0.36 0.34 0.34 0.40 0.48 0.54 0.55 0.62 0.69 0.73 0.73 0.70 0.70 0.70 1.05 1.60 1.20 0.81 0.78 0.82 0.89 0.95 0.96
0.36 0.38 0.53 0.88 0.89 0.90 0.89 0.80 0.75 0.75 0.69 0.68 0.67 0.63 0.62 0.55 0.47 0.43 0.42 0.39 0.38 0.38 0.41 0.43 0.49 0.58 0.61 0.63 0.64 0.65 0.66 0.71 0.79 0.75 1.15 1.59 1.59 1.15 0.97 0.97 0.85 0.88 1.01
0.39 0.43 0.67 0.93 0.91 0.90 0.83 0.79 0.85 0.81 0.72 0.71 0.69 0.67 0.67 0.61 0.57 0.48 0.44 0.44 0.43 0.48 0.52 0.50 0.52 0.57 0.64 0.66 0.63 0.61 0.63 0.82 0.78 0.73 1.00 1.29 1.68 1.34 1.05 1.06 0.96 0.94 1.04
0.52 0.48 0.62 0.82 0.89 0.87 0.75 0.76 0.86 0.79 0.74 0.66 0.59 0.60 0.60 0.58 0.58 0.51 0.53 0.54 0.50 0.53 0.59 0.61 0.64 0.65 0.66 0.67 0.65 0.69 0.79 0.83 0.74 0.92 1.07 1.30 1.56 1.32 1.03 0.97 1.04 1.11 1.18
0.50 0.42 0.48 0.73 0.80 0.77 0.74 0.79 0.89 0.82 0.75 0.63 0.56 0.60 0.61 0.60 0.58 0.56 0.58 0.58 0.56 0.54 0.58 0.63 0.68 0.68 0.64 0.66 0.66 0.68 0.77 0.77 0.85 1.04 1.09 1.29 1.29 1.16 0.99 0.92 1.07 1.15 1.23
0.71 0.57 0.55 0.73 0.79 0.76 0.79 0.82 0.89 0.89 0.78 0.65 0.59 0.59 0.56 0.57 0.57 0.58 0.59 0.60 0.60 0.59 0.62 0.63 0.63 0.62 0.57 0.58 0.59 0.59 0.71 0.72 0.74 0.88 1.00 1.22 1.25 1.15 0.93 0.88 0.97 1.09 1.21
1.06 0.95 0.85 0.80 0.75 0.77 0.84 0.81 0.96 1.09 0.93 0.75 0.66 0.66 0.58 0.54 0.54 0.54 0.54 0.60 0.61 0.63 0.62 0.62 0.64 0.63 0.60 0.57 0.57 0.63 0.74 0.70 0.66 0.78 0.81 1.11 1.27 1.19 1.02 0.92 0.94 1.08 1.22
1.03 0.95 0.95 1.03 1.01 1.00 1.01 1.08 1.19 1.50 1.38 1.00 0.81 0.70 0.65 0.58 0.55 0.59 0.56 0.59 0.65 0.67 0.69 0.72 0.71 0.70 0.71 0.66 0.63 0.70 0.73 0.59 0.58 0.59 0.67 0.88 1.27 1.20 1.02 0.92 0.87 0.90 1.04
0.78 0.82 0.88 0.94 0.96 0.98 0.96 1.13 1.38 1.67 1.73 1.38 1.10 0.95 0.79 0.55 0.58 0.66 0.59 0.69 0.74 0.77 0.80 0.87 0.86 0.80 0.80 0.71 0.70 0.72 0.61 0.44 0.64 0.67 0.71 0.89 1.18 1.18 0.98 0.78 0.70 0.74 0.81
0.60 0.57 0.58 0.62 0.67 0.72 0.77 1.04 1.27 1.33 1.53 1.31 1.28 1.13 0.98 0.92 0.87 0.69 0.64 0.79 0.86 0.87 0.86 0.91 0.96 0.82 0.69 0.56 0.59 0.61 0.42 0.40 0.57 0.62 0.62 0.97 1.26 1.24 1.01 0.81 0.71 0.73 0.72
0.55 0.52 0.45 0.46 0.48 0.54 0.67 0.88 1.10 1.23 1.40 1.41 1.39 1.33 1.32 1.27 0.94 0.78 0.85 0.88 0.90 0.89 0.79 0.84 0.84 0.65 0.52 0.48 0.52 0.46 0.38 0.40 0.51 0.61 0.71 1.00 1.30 1.30 1.04 0.85 0.79 0.76 0.75
0.50 0.56 0.49 0.37 0.37 0.39 0.47 0.66 0.86 1.07 1.26 1.31 1.14 1.06 1.19 1.20 1.01 0.88 1.01 1.09 1.07 1.02 1.01 1.02 0.93 0.77 0.58 0.51 0.49 0.48 0.44 0.48 0.56 0.65 0.79 0.80 1.12 1.25 1.16 0.96 0.88 0.80 0.82
0.47 0.54 0.56 0.48 0.40 0.39 0.44 0.51 0.58 0.87 1.05 1.20 1.25 1.03 1.15 1.19 1.12 0.99 0.93 1.10 1.06 1.05 1.06 1.07 1.03 0.91 0.79 0.64 0.61 0.57 0.62 0.61 0.60 0.59 0.74 0.70 0.86 1.13 1.24 1.17 1.05 0.90 0.89
0.40 0.47 0.52 0.55 0.54 0.50 0.49 0.51 0.51 0.56 0.67 0.79 0.76 0.73 0.92 1.04 1.01 1.01 0.88 0.94 1.00 1.11 1.26 1.25 1.09 1.01 0.91 0.78 0.78 0.75 0.74 0.72 0.71 0.61 0.71 0.74 0.64 0.72 0.92 1.16 1.22 1.11 1.01
0.39 0.42 0.47 0.54 0.61 0.62 0.63 0.71 0.64 0.59 0.64 0.64 0.60 0.61 0.72 0.83 0.85 0.98 0.96 0.92 0.93 1.11 1.28 1.36 1.25 1.17 0.98 0.90 0.88 0.85 0.77 0.82 0.82 0.73 0.73 0.80 0.66 0.55 0.69 0.99 1.22 1.27 1.17
0.38 0.37 0.39 0.43 0.48 0.53 0.60 0.68 0.73 0.73 0.75 0.71 0.74 0.70 0.66 0.79 0.91 1.03 1.07 0.98 0.97 1.13 1.29 1.40 1.46 1.43 1.29 1.17 1.08 0.95 0.88 0.97 0.93 0.83 0.79 0.83 0.84 0.71 0.68 0.73 0.92 1.18 1.29
0.37 0.33 0.31 0.32 0.32 0.35 0.42 0.54 0.65 0.72 0.80 0.87 0.88 0.87 0.84 0.88 0.92 1.06 1.21 1.21 1.19 1.27 1.31 1.32 1.39 1.35 1.35 1.32 1.18 1.11 1.01 1.04 1.07 0.94 0.91 0.97 0.97 0.93 0.82 0.62 0.63 0.69 1.00
0.30 0.31 0.30 0.31 0.30 0.27 0.31 0.45 0.56 0.63 0.71 0.87 0.94 1.01 1.27 1.36 1.14 1.11 1.22 1.24 1.26 1.39 1.40 1.52 1.65 1.50 1.37 1.43 1.36 1.24 1.12 1.06 1.02 1.04 1.07 1.12 1.10 1.00 0.94 0.80 0.73 0.53 0.64
0.16 0.15 0.18 0.24 0.31 0.29 0.26 0.33 0.44 0.53 0.67 0.81 0.97 1.04 1.27 1.38 1.28 1.30 1.30 1.29 1.30 1.34 1.37 1.54 1.83 1.74 1.56 1.47 1.63 1.55 1.35 1.15 1.07 1.05 1.06 1.20 1.24 1.12 1.08 1.12 0.96 0.77 0.59
0.09 0.09 0.12 0.16 0.25 0.32 0.36 0.41 0.53 0.71 0.83 0.93 1.06 1.13 1.24 1.26 1.26 1.19 1.33 1.42 1.37 1.44 1.50 1.65 1.87 1.97 1.78 1.63 1.86 2.17 1.89 1.56 1.19 1.04 1.04 1.05 1.19 1.21 1.12 1.03 0.99 0.94 0.79
0.05 0.07 0.12 0.20 0.33 0.50 0.66 0.88 1.13 1.41 1.53 1.42 1.27 1.34 1.47 1.53 1.49 1.42 1.49 1.62 1.54 1.55 1.60 1.64 1.69 2.03 2.12 1.94 1.91 2.32 2.09 1.86 1.77 1.28 0.99 0.94 1.16 1.27 1.25 1.13 1.01 1.08 1.06
0.12 0.19 0.29 0.41 0.57 0.74 0.95 1.17 1.43 1.66 1.82 1.84 1.86 1.89 1.87 1.82 1.70 1.59 1.59 1.63 1.65 1.70 1.63 1.52 1.65 1.98 2.34 2.31 2.14 1.96 1.77 1.67 1.87 1.71 1.21 0.96 1.06 1.20 1.30 1.22 1.13 1.14 1.21
0.29 0.42 0.53 0.76 0.93 1.07 1.13 1.23 1.45 1.56 1.63 1.74 1.88 1.93 1.93 1.84 1.71 1.56 1.51 1.54 1.61 1.71 1.70 1.73 1.87 2.13 2.36 2.51 2.43 2.16 1.88 1.68 1.40 1.54 1.53 1.31 1.11 1.04 1.06 1.19 1.28 1.23 1.22
0.58 0.81 0.96 1.07 1.16 1.16 1.14 1.16 1.30 1.44 1.52 1.60 1.73 1.79 1.73 1.59 1.54 1.51 1.49 1.45 1.40 1.48 1.58 1.73 1.97 2.08 2.24 2.43 2.44 2.16 1.96 1.81 1.62 1.54 1.42 1.47 1.47 1.20 1.02 1.03 1.13 1.16 1.19

GEFSSE_prec_meanprecacc_144.txt.gz
Total_Precipitation_Accumulation
1.11 0.64 1.11 1.04 0.89 0.75 0.72 0.76 0.80 0.82 0.80 0.74 0.65 0.58 0.52 0.49 0.44 0.44 0.41 0.37 0.36 0.38 0.44 0.50 0.48 0.50 0.48 0.48 0.50 0.56 0.56 0.55 0.51 0.41 0.38 0.42 0.48 0.54 0.69 0.84 1.13 1.51 1.09
0.69 0.48 0.96 1.07 0.91 0.80 0.76 0.73 0.74 0.75 0.72 0.67 0.64 0.59 0.55 0.51 0.47 0.44 0.40 0.38 0.37 0.37 0.38 0.44 0.48 0.51 0.54 0.55 0.63 0.69 0.64 0.60 0.62 0.60 0.65 0.77 0.66 0.62 0.63 0.77 1.19 1.46 1.07
0.49 0.43 0.65 1.01 0.93 0.89 0.88 0.81 0.72 0.73 0.68 0.61 0.63 0.58 0.58 0.54 0.47 0.43 0.41 0.40 0.38 0.37 0.37 0.42 0.51 0.57 0.59 0.65 0.71 0.74 0.74 0.72 0.73 0.74 1.09 1.62 1.22 0.84 0.80 0.83 0.90 0.96 0.97
0.39 0.39 0.55 0.93 0.94 0.95 0.95 0.84 0.78 0.77 0.70 0.70 0.71 0.66 0.64 0.58 0.50 0.45 0.43 0.40 0.39 0.40 0.44 0.45 0.52 0.61 0.64 0.66 0.66 0.66 0.68 0.74 0.83 0.80 1.18 1.62 1.61 1.18 0.99 0.98 0.86 0.89 1.01
0.40 0.43 0.70 0.99 0.96 0.95 0.88 0.82 0.87 0.82 0.73 0.73 0.72 0.69 0.69 0.63 0.59 0.49 0.45 0.45 0.44 0.49 0.53 0.52 0.55 0.60 0.66 0.68 0.64 0.62 0.66 0.85 0.82 0.77 1.02 1.31 1.69 1.37 1.07 1.07 0.97 0.95 1.05
0.54 0.49 0.64 0.85 0.91 0.89 0.76 0.77 0.86 0.80 0.75 0.67 0.61 0.63 0.63 0.60 0.59 0.53 0.54 0.56 0.52 0.55 0.60 0.62 0.65 0.67 0.68 0.69 0.66 0.71 0.81 0.86 0.77 0.96 1.10 1.32 1.57 1.35 1.05 0.98 1.05 1.12 1.20
0.50 0.43 0.50 0.75 0.81 0.78 0.74 0.80 0.90 0.83 0.76 0.64 0.58 0.62 0.63 0.61 0.59 0.57 0.60 0.60 0.58 0.56 0.59 0.64 0.68 0.69 0.65 0.67 0.67 0.69 0.78 0.79 0.87 1.08 1.13 1.32 1.31 1.19 1.01 0.93 1.09 1.16 1.24
0.71 0.57 0.55 0.75 0.80 0.77 0.80 0.83 0.90 0.90 0.79 0.66 0.60 0.60 0.58 0.58 0.58 0.59 0.60 0.61 0.60 0.59 0.63 0.64 0.64 0.62 0.57 0.58 0.59 0.60 0.72 0.74 0.76 0.92 1.03 1.25 1.28 1.18 0.94 0.89 0.99 1.10 1.22
1.06 0.95 0.85 0.81 0.76 0.78 0.85 0.82 0.96 1.10 0.94 0.76 0.68 0.67 0.59 0.55 0.54 0.55 0.55 0.61 0.61 0.63 0.62 0.62 0.64 0.63 0.60 0.58 0.57 0.63 0.74 0.72 0.69 0.82 0.84 1.13 1.31 1.22 1.03 0.93 0.94 1.10 1.24
1.03 0.96 0.95 1.03 1.02 1.00 1.01 1.08 1.20 1.51 1.38 1.01 0.81 0.70 0.65 0.58 0.55 0.59 0.56 0.59 0.65 0.68 0.69 0.72 0.71 0.70 0.71 0.66 0.63 0.71 0.74 0.61 0.62 0.62 0.69 0.91 1.33 1.25 1.04 0.93 0.87 0.91 1.05
0.78 0.82 0.88 0.94 0.96 0.98 0.96 1.13 1.38 1.67 1.73 1.38 1.10 0.95 0.79 0.55 0.58 0.66 0.59 0.69 0.74 0.77 0.80 0.87 0.87 0.80 0.80 0.72 0.70 0.72 0.62 0.46 0.68 0.69 0.73 0.93 1.24 1.24 1.01 0.79 0.71 0.75 0.82
0.60 0.57 0.58 0.62 0.67 0.72 0.77 1.04 1.27 1.33 1.53 1.31 1.28 1.13 0.98 0.92 0.87 0.69 0.64 0.79 0.86 0.87 0.86 0.92 0.97 0.82 0.69 0.57 0.59 0.62 0.43 0.42 0.60 0.65 0.65 1.02 1.32 1.30 1.04 0.82 0.72 0.73 0.72
0.55 0.52 0.45 0.46 0.48 0.54 0.67 0.88 1.10 1.23 1.40 1.41 1.39 1.33 1.32 1.27 0.94 0.78 0.85 0.88 0.90 0.90 0.79 0.84 0.84 0.65 0.53 0.49 0.53 0.48 0.40 0.43 0.54 0.64 0.74 1.05 1.36 1.35 1.08 0.87 0.80 0.77 0.76
0.50 0.56 0.49 0.37 0.37 0.39 0.47 0.66 0.86 1.07 1.26 1.31 1.14 1.06 1.19 1.20 1.01 0.88 1.01 1.09 1.07 1.02 1.01 1.02 0.93 0.77 0.59 0.53 0.51 0.51 0.45 0.50 0.58 0.66 0.80 0.84 1.17 1.29 1.20 1.00 0.92 0.84 0.85
0.47 0.54 0.56 0.48 0.40 0.39 0.44 0.51 0.58 0.87 1.05 1.20 1.25 1.03 1.15 1.19 1.12 0.99 0.93 1.10 1.07 1.06 1.07 1.08 1.04 0.92 0.80 0.66 0.62 0.59 0.63 0.62 0.61 0.59 0.75 0.73 0.89 1.17 1.28 1.23 1.14 0.97 0.95
0.40 0.47 0.52 0.55 0.54 0.50 0.49 0.51 0.51 0.56 0.67 0.79 0.76 0.73 0.92 1.04 1.01 1.01 0.88 0.94 1.01 1.11 1.26 1.27 1.10 1.02 0.92 0.80 0.80 0.78 0.77 0.73 0.72 0.62 0.71 0.75 0.65 0.73 0.95 1.22 1.33 1.21 1.11
0.39 0.42 0.47 0.54 0.61 0.62 0.63 0.71 0.64 0.59 0.64 0.64 0.60 0.61 0.72 0.83 0.85 0.98 0.96 0.93 0.94 1.12 1.30 1.37 1.27 1.17 0.99 0.91 0.90 0.88 0.79 0.84 0.83 0.74 0.74 0.81 0.67 0.56 0.71 1.04 1.31 1.37 1.29
0.38 0.37 0.39 0.43 0.48 0.53 0.60 0.68 0.73 0.73 0.75 0.71 0.74 0.70 0.66 0.80 0.92 1.04 1.07 0.99 0.97 1.14 1.31 1.42 1.47 1.44 1.29 1.19 1.11 0.98 0.91 1.00 0.96 0.86 0.81 0.85 0.86 0.71 0.69 0.76 0.98 1.27 1.41
0.37 0.33 0.31 0.32 0.32 0.35 0.42 0.54 0.65 0.72 0.80 0.87 0.88 0.87 0.85 0.89 0.92 1.06 1.21 1.22 1.20 1.28 1.33 1.33 1.40 1.36 1.36 1.34 1.22 1.14 1.04 1.08 1.09 0.97 0.95 1.00 1.00 0.95 0.83 0.63 0.67 0.75 1.09
0.30 0.31 0.30 0.31 0.30 0.27 0.31 0.45 0.56 0.63 0.71 0.87 0.94 1.01 1.27 1.36 1.14 1.11 1.22 1.24 1.27 1.40 1.41 1.52 1.65 1.52 1.40 1.45 1.39 1.27 1.16 1.09 1.04 1.07 1.12 1.16 1.13 1.03 0.96 0.81 0.74 0.56 0.68
0.16 0.15 0.18 0.24 0.31 0.29 0.26 0.33 0.44 0.53 0.67 0.81 0.97 1.04 1.28 1.38 1.28 1.30 1.31 1.30 1.30 1.34 1.38 1.55 1.84 1.76 1.59 1.49 1.65 1.56 1.38 1.20 1.11 1.10 1.12 1.26 1.29 1.15 1.10 1.13 0.98 0.79 0.60
0.09 0.09 0.12 0.16 0.25 0.32 0.36 0.41 0.53 0.71 0.83 0.93 1.06 1.13 1.24 1.26 1.26 1.19 1.34 1.42 1.37 1.44 1.50 1.65 1.88 1.99 1.80 1.64 1.87 2.18 1.90 1.60 1.24 1.12 1.12 1.12 1.25 1.24 1.14 1.04 1.01 0.97 0.80
0.05 0.07 0.12 0.20 0.33 0.50 0.66 0.88 1.13 1.41 1.53 1.42 1.27 1.34 1.47 1.54 1.50 1.42 1.49 1.63 1.54 1.55 1.60 1.64 1.69 2.04 2.13 1.96 1.93 2.33 2.10 1.89 1.80 1.34 1.08 1.02 1.21 1.30 1.27 1.14 1.03 1.10 1.08
0.12 0.19 0.29 0.41 0.57 0.74 0.95 1.17 1.43 1.66 1.82 1.84 1.86 1.89 1.88 1.83 1.71 1.59 1.59 1.63 1.65 1.70 1.63 1.52 1.65 1.98 2.35 2.34 2.18 1.98 1.79 1.69 1.88 1.74 1.26 1.01 1.11 1.23 1.33 1.24 1.15 1.17 1.22
0.29 0.42 0.53 0.76 0.93 1.07 1.13 1.23 1.45 1.56 1.63 1.74 1.88 1.93 1.93 1.85 1.72 1.58 1.51 1.55 1.61 1.71 1.70 1.73 1.87 2.13 2.36 2.52 2.45 2.18 1.90 1.70 1.41 1.55 1.55 1.34 1.13 1.06 1.09 1.21 1.30 1.24 1.23
0.58 0.81 0.96 1.07 1.16 1.16 1.14 1.16 1.30 1.44 1.52 1.60 1.73 1.79 1.73 1.59 1.55 1.51 1.49 1.45 1.40 1.48 1.58 1.73 1.97 2.08 2.25 2.44 2.45 2.17 1.98 1.81 1.63 1.54 1.43 1.48 1.48 1.21 1.03 1.03 1.13 1.17 1.19